User: anonymous   Login
Location: Columbus
(29.5618°N, 96.6770°W)
Time: 00:46:19
(UTC-06:00)
Language:

Cosmos 2056 Rocket - Orbit

View from above orbital plane
View from above orbital plane
View from above satellite
View from above satellite

Ground track
Ground track

The orbit data is extracted from the following two-line orbital elements,

1 20433U 90004B   16337.17419644 -.00000003  00000-0  77406-5 0  9994
2 20433  74.0362 357.8280 0040861 177.0648 245.6474 14.35965011406929
Epoch (UTC): 02 December 2016 04:10:50
Eccentricity: 0.0040861
inclination: 74.0362°
perigee height: 742 km
apogee height: 801 km
right ascension of ascending node: 357.8280°
argument of perigee: 177.0648°
revolutions per day: 14.35965011
mean anomaly at epoch: 245.6474°
orbit number at epoch: 40692

The dashed part of the orbit path shows where the satellite is in the earth's shadow,  

DLR